| time (UTC) | temp F | wind direction | speed MPH | gust MPH | rain 1hr in | rain 24hr in | rain mn in | humidity % | barometer mb |
| 20260905165039 | 84 | 252 | 0.0 | 2.0 | 0.00 | 0.00 | 0.00 | 66 | 1016.3 |
| 20260905164539 | 84 | 181 | 0.0 | 2.0 | 0.00 | 0.00 | 0.00 | 65 | 1016.3 |
| 20260905164039 | 84 | 19 | 0.0 | 2.0 | 0.00 | 0.00 | 0.00 | 63 | 1016.3 |
| 20260905163542 | 85 | 339 | 0.0 | 2.0 | 0.00 | 0.00 | 0.00 | 63 | 1016.2 |
| 20260905163040 | 85 | 59 | 0.0 | 2.0 | 0.00 | 0.00 | 0.00 | 62 | 1016.2 |
| 20260905162540 | 85 | 192 | 0.0 | 6.0 | 0.00 | 0.00 | 0.00 | 61 | 1016.1 |
| 20260905162040 | 85 | 312 | 0.0 | 1.0 | 0.00 | 0.00 | 0.00 | 62 | 1016.1 |
| 20260905161540 | 86 | 88 | 0.0 | 3.0 | 0.00 | 0.00 | 0.00 | 61 | 1016.1 |
| 20260905161039 | 86 | 181 | 0.0 | 2.0 | 0.00 | 0.00 | 0.00 | 60 | 1016.2 |
| 20260905160539 | 86 | 257 | 0.0 | 6.0 | 0.00 | 0.00 | 0.00 | 61 | 1016.1 |
| 20260905160039 | 86 | 315 | 1.0 | 3.0 | 0.00 | 0.00 | 0.00 | 60 | 1016.2 |
| 20260905155539 | 86 | 42 | 0.0 | 3.0 | 0.00 | 0.00 | 0.00 | 58 | 1016.3 |
| 20260905155039 | 86 | 204 | 0.0 | 2.0 | 0.00 | 0.00 | 0.00 | 59 | 1016.3 |
| 20260905154539 | 87 | 24 | 1.0 | 3.0 | 0.00 | 0.00 | 0.00 | 59 | 1016.4 |
| 20260905154043 | 87 | 254 | 0.0 | 3.0 | 0.00 | 0.00 | 0.00 | 59 | 1016.3 |
| 20260905153543 | 87 | 282 | 1.0 | 2.0 | 0.00 | 0.00 | 0.00 | 58 | 1016.3 |
| 20260905153039 | 87 | 35 | 0.0 | 4.0 | 0.00 | 0.00 | 0.00 | 57 | 1016.2 |
| 20260905152540 | 87 | 32 | 0.0 | 4.0 | 0.00 | 0.00 | 0.00 | 56 | 1016.3 |
| 20260905152039 | 87 | 337 | 0.0 | 3.0 | 0.00 | 0.00 | 0.00 | 55 | 1016.3 |
| 20260905151539 | 87 | 315 | 0.0 | 6.0 | 0.00 | 0.00 | 0.00 | 56 | 1016.4 |
| 20260905151039 | 87 | 243 | 0.0 | 5.0 | 0.00 | 0.00 | 0.00 | 58 | 1016.4 |
| 20260905150539 | 87 | 227 | 0.0 | 3.0 | 0.00 | 0.00 | 0.00 | 59 | 1016.4 |
| 20260905150039 | 87 | 232 | 0.0 | 3.0 | 0.00 | 0.00 | 0.00 | 60 | 1016.3 |
| 20260905145540 | 87 | 211 | 1.0 | 2.0 | 0.00 | 0.00 | 0.00 | 59 | 1016.4 |
| 20260905145039 | 87 | 190 | 0.0 | 4.0 | 0.00 | 0.00 | 0.00 | 60 | 1016.4 |
| 20260905144539 | 86 | 274 | 1.0 | 4.0 | 0.00 | 0.00 | 0.00 | 60 | 1016.4 |
| 20260905144040 | 86 | 122 | 0.0 | 4.0 | 0.00 | 0.00 | 0.00 | 61 | 1016.4 |
| 20260905143539 | 87 | 306 | 2.0 | 5.0 | 0.00 | 0.00 | 0.00 | 61 | 1016.5 |
| 20260905143040 | 87 | 230 | 1.0 | 4.0 | 0.00 | 0.00 | 0.00 | 63 | 1016.5 |
| 20260905142540 | 87 | 206 | 3.0 | 6.0 | 0.00 | 0.00 | 0.00 | 63 | 1016.5 |
| 20260905142040 | 86 | 348 | 0.0 | 7.0 | 0.00 | 0.00 | 0.00 | 62 | 1016.6 |
| 20260905141540 | 87 | 333 | 3.0 | 8.0 | 0.00 | 0.00 | 0.00 | 60 | 1016.6 |
| 20260905141039 | 87 | 101 | 0.0 | 9.0 | 0.00 | 0.00 | 0.00 | 61 | 1016.6 |
| 20260905140540 | 87 | 242 | 1.0 | 7.0 | 0.00 | 0.00 | 0.00 | 60 | 1016.7 |
| 20260905140043 | 87 | 245 | 1.0 | 9.0 | 0.00 | 0.00 | 0.00 | 60 | 1016.7 |
| 20260905135539 | 87 | 344 | 0.0 | 4.0 | 0.00 | 0.00 | 0.00 | 59 | 1016.8 |
| 20260905135043 | 87 | 237 | 2.0 | 7.0 | 0.00 | 0.00 | 0.00 | 59 | 1016.7 |
| 20260905134540 | 87 | 29 | 0.0 | 6.0 | 0.00 | 0.00 | 0.00 | 61 | 1016.8 |
| 20260905134039 | 87 | 69 | 2.0 | 6.0 | 0.00 | 0.00 | 0.00 | 60 | 1016.8 |
| 20260905133543 | 87 | 30 | 1.0 | 4.0 | 0.00 | 0.00 | 0.00 | 59 | 1016.8 |
| 20260905133039 | 87 | 172 | 0.0 | 10.0 | 0.00 | 0.00 | 0.00 | 59 | 1016.9 |
| 20260905132539 | 87 | 329 | 1.0 | 7.0 | 0.00 | 0.00 | 0.00 | 61 | 1016.9 |
| 20260905132039 | 88 | 170 | 1.0 | 5.0 | 0.00 | 0.00 | 0.00 | 61 | 1016.9 |
| 20260905131539 | 88 | 202 | 2.0 | 3.0 | 0.00 | 0.00 | 0.00 | 61 | 1016.9 |
| 20260905131042 | 88 | 140 | 0.0 | 4.0 | 0.00 | 0.00 | 0.00 | 60 | 1016.9 |
| 20260905130539 | 88 | 349 | 0.0 | 7.0 | 0.00 | 0.00 | 0.00 | 57 | 1016.9 |
| 20260905130039 | 89 | 207 | 1.0 | 7.0 | 0.00 | 0.00 | 0.00 | 55 | 1017.0 |
| 20260905125539 | 89 | 308 | 1.0 | 6.0 | 0.00 | 0.00 | 0.00 | 54 | 1017.0 |
| 20260905125039 | 89 | 213 | 2.0 | 8.0 | 0.00 | 0.00 | 0.00 | 55 | 1016.9 |
| 20260905124539 | 89 | 330 | 1.0 | 4.0 | 0.00 | 0.00 | 0.00 | 53 | 1016.9 |
| 20260905124039 | 89 | 67 | 2.0 | 4.0 | 0.00 | 0.00 | 0.00 | 46 | 1017.0 |
| 20260905123539 | 89 | 199 | 0.0 | 6.0 | 0.00 | 0.00 | 0.00 | 49 | 1017.0 |
| 20260905123039 | 89 | 22 | 0.0 | 7.0 | 0.00 | 0.00 | 0.00 | 48 | 1017.0 |
| 20260905122539 | 89 | 329 | 0.0 | 5.0 | 0.00 | 0.00 | 0.00 | 49 | 1017.0 |
| 20260905122040 | 88 | 187 | 0.0 | 4.0 | 0.00 | 0.00 | 0.00 | 51 | 1017.0 |
| 20260905121542 | 88 | 146 | 1.0 | 4.0 | 0.00 | 0.00 | 0.00 | 55 | 1017.0 |
| 20260905121039 | 88 | 263 | 1.0 | 8.0 | 0.00 | 0.00 | 0.00 | 57 | 1017.0 |
| 20260905120539 | 88 | 217 | 1.0 | 5.0 | 0.00 | 0.00 | 0.00 | 58 | 1017.0 |
| 20260905120040 | 88 | 68 | 0.0 | 2.0 | 0.00 | 0.00 | 0.00 | 58 | 1017.1 |
| 20260905115540 | 89 | 173 | 1.0 | 4.0 | 0.00 | 0.00 | 0.00 | 56 | 1017.1 |
| 20260905115039 | 89 | 207 | 1.0 | 6.0 | 0.00 | 0.00 | 0.00 | 54 | 1017.1 |
| 20260905114540 | 89 | 217 | 1.0 | 3.0 | 0.00 | 0.00 | 0.00 | 53 | 1017.1 |
| 20260905114039 | 89 | 183 | 0.0 | 6.0 | 0.00 | 0.00 | 0.00 | 53 | 1017.0 |
| 20260905113539 | 88 | 207 | 3.0 | 4.0 | 0.00 | 0.00 | 0.00 | 53 | 1017.0 |
| 20260905113042 | 88 | 175 | 0.0 | 3.0 | 0.00 | 0.00 | 0.00 | 53 | 1017.0 |
| 20260905112539 | 88 | 261 | 1.0 | 3.0 | 0.00 | 0.00 | 0.00 | 53 | 1016.9 |
| 20260905112040 | 88 | 333 | 1.0 | 5.0 | 0.00 | 0.00 | 0.00 | 54 | 1017.0 |
| 20260905111539 | 88 | 65 | 0.0 | 5.0 | 0.00 | 0.00 | 0.00 | 53 | 1017.1 |
| 20260905111039 | 88 | 178 | 0.0 | 4.0 | 0.00 | 0.00 | 0.00 | 51 | 1017.0 |
| 20260905110539 | 89 | 197 | 4.0 | 4.0 | 0.00 | 0.00 | 0.00 | 52 | 1017.1 |
| 20260905110039 | 89 | 208 | 0.0 | 6.0 | 0.00 | 0.00 | 0.00 | 51 | 1017.1 |
| 20260905105540 | 89 | 88 | 1.0 | 2.0 | 0.00 | 0.00 | 0.00 | 51 | 1017.1 |
| 20260905105039 | 89 | 225 | 0.0 | 2.0 | 0.00 | 0.00 | 0.00 | 48 | 1017.2 |
| 20260905104539 | 88 | 139 | 0.0 | 2.0 | 0.00 | 0.00 | 0.00 | 46 | 1017.2 |
| 20260905104039 | 88 | 103 | 1.0 | 3.0 | 0.00 | 0.00 | 0.00 | 46 | 1017.2 |
| 20260905103539 | 89 | 33 | 1.0 | 3.0 | 0.00 | 0.00 | 0.00 | 47 | 1017.2 |
| 20260905103042 | 89 | 282 | 0.0 | 5.0 | 0.00 | 0.00 | 0.00 | 46 | 1017.1 |
| 20260905102539 | 89 | 244 | 0.0 | 8.0 | 0.00 | 0.00 | 0.00 | 45 | 1017.2 |
| 20260905102039 | 89 | 194 | 2.0 | 5.0 | 0.00 | 0.00 | 0.00 | 44 | 1017.2 |
| 20260905101539 | 89 | 176 | 2.0 | 3.0 | 0.00 | 0.00 | 0.00 | 43 | 1017.2 |
| 20260905101039 | 89 | 309 | 1.0 | 3.0 | 0.00 | 0.00 | 0.00 | 44 | 1017.2 |
| 20260905100539 | 88 | 216 | 0.0 | 4.0 | 0.00 | 0.00 | 0.00 | 44 | 1017.3 |
| 20260905100039 | 88 | 234 | 0.0 | 8.0 | 0.00 | 0.00 | 0.00 | 43 | 1017.3 |
| 20260905095542 | 90 | 217 | 0.0 | 5.0 | 0.00 | 0.00 | 0.00 | 41 | 1017.3 |
| 20260905095039 | 90 | 260 | 0.0 | 4.0 | 0.00 | 0.00 | 0.00 | 41 | 1017.3 |
| 20260905094539 | 90 | 232 | 1.0 | 4.0 | 0.00 | 0.00 | 0.00 | 42 | 1017.2 |
| 20260905094039 | 90 | 214 | 4.0 | 5.0 | 0.00 | 0.00 | 0.00 | 41 | 1017.2 |
| 20260905093539 | 90 | 227 | 0.0 | 10.0 | 0.00 | 0.00 | 0.00 | 41 | 1017.3 |
| 20260905093039 | 90 | 245 | 3.0 | 10.0 | 0.00 | 0.00 | 0.00 | 41 | 1017.2 |
| 20260905092539 | 90 | 200 | 1.0 | 8.0 | 0.00 | 0.00 | 0.00 | 39 | 1017.1 |
| 20260905092039 | 90 | 186 | 4.0 | 6.0 | 0.00 | 0.00 | 0.00 | 37 | 1017.1 |
| 20260905091539 | 90 | 185 | 1.0 | 6.0 | 0.00 | 0.00 | 0.00 | 36 | 1017.1 |
| 20260905091039 | 90 | 166 | 3.0 | 6.0 | 0.00 | 0.00 | 0.00 | 37 | 1017.1 |
| 20260905090539 | 90 | 170 | 5.0 | 4.0 | 0.00 | 0.00 | 0.00 | 38 | 1017.1 |
| 20260905090039 | 89 | 218 | 0.0 | 5.0 | 0.00 | 0.00 | 0.00 | 37 | 1017.0 |
| 20260905085542 | 90 | 175 | 1.0 | 3.0 | 0.00 | 0.00 | 0.00 | 38 | 1017.0 |
| 20260905085039 | 89 | 225 | 0.0 | 1.0 | 0.00 | 0.00 | 0.00 | 39 | 1017.1 |
| 20260905084542 | 89 | 227 | 0.0 | 3.0 | 0.00 | 0.00 | 0.00 | 39 | 1017.1 |
| 20260905084039 | 89 | 312 | 2.0 | 2.0 | 0.00 | 0.00 | 0.00 | 38 | 1017.2 |
| 20260905083539 | 89 | 229 | 0.0 | 2.0 | 0.00 | 0.00 | 0.00 | 39 | 1017.1 |
| 20260905083039 | 89 | 214 | 0.0 | 1.0 | 0.00 | 0.00 | 0.00 | 39 | 1017.1 |
| 20260905082539 | 89 | 211 | 0.0 | 3.0 | 0.00 | 0.00 | 0.00 | 38 | 1017.1 |
| 20260905082039 | 89 | 266 | 0.0 | 1.0 | 0.00 | 0.00 | 0.00 | 38 | 1017.0 |
| 20260905081539 | 89 | 266 | 0.0 | 3.0 | 0.00 | 0.00 | 0.00 | 39 | 1016.9 |
| 20260905081039 | 88 | 280 | 0.0 | 1.0 | 0.00 | 0.00 | 0.00 | 40 | 1016.8 |
| 20260905080539 | 87 | 280 | 0.0 | 1.0 | 0.00 | 0.00 | 0.00 | 41 | 1016.8 |
| 20260905080039 | 86 | 280 | 0.0 | 2.0 | 0.00 | 0.00 | 0.00 | 41 | 1016.7 |
| 20260905075539 | 87 | 306 | 0.0 | 1.0 | 0.00 | 0.00 | 0.00 | 40 | 1016.8 |
| 20260905075039 | 87 | 306 | 0.0 | 0.0 | 0.00 | 0.00 | 0.00 | 39 | 1016.8 |
| 20260905074539 | 86 | 306 | 0.0 | 0.0 | 0.00 | 0.00 | 0.00 | 41 | 1016.8 |
| 20260905074039 | 85 | 306 | 0.0 | 0.0 | 0.00 | 0.00 | 0.00 | 42 | 1016.7 |
| 20260905073539 | 84 | 306 | 0.0 | 0.0 | 0.00 | 0.00 | 0.00 | 43 | 1016.7 |
| 20260905073042 | 84 | 306 | 0.0 | 0.0 | 0.00 | 0.00 | 0.00 | 43 | 1016.7 |
| 20260905072539 | 83 | 306 | 0.0 | 0.0 | 0.00 | 0.00 | 0.00 | 44 | 1016.7 |
| 20260905072039 | 83 | 306 | 0.0 | 0.0 | 0.00 | 0.00 | 0.00 | 44 | 1016.9 |
| 20260905071539 | 83 | 324 | 0.0 | 1.0 | 0.00 | 0.00 | 0.00 | 44 | 1016.9 |
| 20260905071039 | 83 | 324 | 0.0 | 4.0 | 0.00 | 0.00 | 0.00 | 44 | 1016.9 |
| 20260905070539 | 84 | 304 | 0.0 | 2.0 | 0.00 | 0.00 | 0.00 | 43 | 1017.0 |
| 20260905070042 | 84 | 222 | 0.0 | 3.0 | 0.00 | 0.00 | 0.00 | 44 | 1017.0 |
| 20260905065542 | 84 | 43 | 0.0 | 1.0 | 0.00 | 0.00 | 0.00 | 44 | 1017.0 |
| 20260905065039 | 83 | 42 | 0.0 | 1.0 | 0.00 | 0.00 | 0.00 | 44 | 1017.0 |
| 20260905064039 | 82 | 42 | 0.0 | 0.0 | 0.00 | 0.00 | 0.00 | 44 | 1016.9 |
| 20260905063539 | 82 | 42 | 0.0 | 1.0 | 0.00 | 0.00 | 0.00 | 45 | 1016.8 |
| 20260905063042 | 82 | 42 | 0.0 | 1.0 | 0.00 | 0.00 | 0.00 | 45 | 1016.7 |
| 20260905062539 | 81 | 42 | 0.0 | 0.0 | 0.00 | 0.00 | 0.00 | 45 | 1016.8 |
| 20260905062039 | 80 | 42 | 0.0 | 1.0 | 0.00 | 0.00 | 0.00 | 46 | 1016.7 |
| 20260905061539 | 80 | 42 | 0.0 | 2.0 | 0.00 | 0.00 | 0.00 | 45 | 1016.6 |
| 20260905061042 | 80 | 330 | 0.0 | 1.0 | 0.00 | 0.00 | 0.00 | 45 | 1016.5 |
| 20260905060539 | 79 | 330 | 0.0 | 0.0 | 0.00 | 0.00 | 0.00 | 46 | 1016.5 |
| 20260905060042 | 77 | 330 | 0.0 | 0.0 | 0.00 | 0.00 | 0.00 | 48 | 1016.4 |
| 20260905055539 | 76 | 330 | 0.0 | 1.0 | 0.00 | 0.00 | 0.00 | 48 | 1016.3 |
| 20260905055039 | 76 | 331 | 0.0 | 2.0 | 0.00 | 0.00 | 0.00 | 49 | 1016.3 |
| 20260905054542 | 76 | 331 | 0.0 | 1.0 | 0.00 | 0.00 | 0.00 | 50 | 1016.3 |
| 20260905054040 | 76 | 331 | 0.0 | 1.0 | 0.00 | 0.00 | 0.00 | 51 | 1016.3 |
| 20260905053539 | 76 | 331 | 0.0 | 1.0 | 0.00 | 0.00 | 0.00 | 52 | 1016.3 |
| 20260905053042 | 75 | 330 | 0.0 | 0.0 | 0.00 | 0.00 | 0.00 | 57 | 1016.2 |
| 20260905052539 | 75 | 330 | 0.0 | 0.0 | 0.00 | 0.00 | 0.00 | 58 | 1016.2 |
| 20260905052039 | 74 | 330 | 0.0 | 0.0 | 0.00 | 0.00 | 0.00 | 58 | 1016.2 |
| 20260905051539 | 74 | 330 | 0.0 | 0.0 | 0.00 | 0.00 | 0.00 | 59 | 1016.2 |
| 20260905051039 | 73 | 330 | 0.0 | 0.0 | 0.00 | 0.00 | 0.00 | 60 | 1016.2 |
| 20260905050539 | 73 | 330 | 0.0 | 0.0 | 0.00 | 0.00 | 0.00 | 61 | 1016.1 |
| 20260905050039 | 73 | 330 | 0.0 | 0.0 | 0.00 | 0.00 | 0.00 | 61 | 1016.1 |
| 20260905045542 | 73 | 330 | 0.0 | 1.0 | 0.00 | 0.00 | 0.00 | 61 | 1016.0 |
| 20260905045042 | 73 | 330 | 0.0 | 0.0 | 0.00 | 0.00 | 0.00 | 61 | 1016.0 |
| 20260905044539 | 73 | 330 | 0.0 | 1.0 | 0.00 | 0.00 | 0.00 | 61 | 1015.9 |
| 20260905044042 | 73 | 330 | 0.0 | 0.0 | 0.00 | 0.00 | 0.00 | 61 | 1015.9 |
| 20260905043543 | 73 | 330 | 0.0 | 1.0 | 0.00 | 0.00 | 0.00 | 61 | 1015.9 |
| 20260905043039 | 73 | 330 | 0.0 | 1.0 | 0.00 | 0.00 | 0.00 | 61 | 1015.8 |
| 20260905042539 | 73 | 329 | 0.0 | 2.0 | 0.00 | 0.00 | 0.00 | 61 | 1015.8 |
| 20260905042039 | 73 | 329 | 0.0 | 2.0 | 0.00 | 0.00 | 0.00 | 61 | 1015.8 |
| 20260905041542 | 74 | 328 | 1.0 | 1.0 | 0.00 | 0.00 | 0.00 | 61 | 1015.8 |
| 20260905041042 | 74 | 329 | 0.0 | 2.0 | 0.00 | 0.00 | 0.00 | 61 | 1015.8 |
| 20260905040539 | 74 | 328 | 0.0 | 2.0 | 0.00 | 0.00 | 0.00 | 61 | 1015.9 |
| 20260905040042 | 74 | 321 | 0.0 | 1.0 | 0.00 | 0.00 | 0.00 | 61 | 1015.9 |
| 20260905035539 | 74 | 321 | 0.0 | 0.0 | 0.00 | 0.00 | 0.00 | 62 | 1015.9 |
| 20260905035042 | 74 | 321 | 0.0 | 1.0 | 0.00 | 0.00 | 0.00 | 63 | 1015.9 |
| 20260905034542 | 74 | 321 | 0.0 | 2.0 | 0.00 | 0.00 | 0.00 | 63 | 1015.9 |
| 20260905034039 | 74 | 321 | 0.0 | 2.0 | 0.00 | 0.00 | 0.00 | 63 | 1016.0 |
| 20260905033539 | 74 | 327 | 0.0 | 2.0 | 0.00 | 0.00 | 0.00 | 63 | 1016.0 |
| 20260905033042 | 74 | 327 | 1.0 | 2.0 | 0.00 | 0.00 | 0.00 | 63 | 1016.0 |
| 20260905032539 | 74 | 326 | 0.0 | 1.0 | 0.00 | 0.00 | 0.00 | 62 | 1015.9 |
| 20260905032039 | 74 | 326 | 0.0 | 0.0 | 0.00 | 0.00 | 0.00 | 62 | 1015.9 |
| 20260905031542 | 74 | 326 | 0.0 | 0.0 | 0.00 | 0.00 | 0.00 | 61 | 1015.9 |
| 20260905031039 | 74 | 326 | 0.0 | 1.0 | 0.00 | 0.00 | 0.00 | 61 | 1015.8 |
| 20260905030539 | 74 | 326 | 0.0 | 1.0 | 0.00 | 0.00 | 0.00 | 60 | 1015.9 |
| 20260905030039 | 74 | 326 | 0.0 | 1.0 | 0.00 | 0.00 | 0.00 | 59 | 1015.9 |
| 20260905025539 | 75 | 326 | 2.0 | 3.0 | 0.00 | 0.00 | 0.00 | 59 | 1016.0 |
| 20260905025039 | 75 | 292 | 0.0 | 2.0 | 0.00 | 0.00 | 0.00 | 59 | 1016.0 |
| 20260905024539 | 75 | 327 | 0.0 | 1.0 | 0.00 | 0.00 | 0.00 | 57 | 1016.0 |
| 20260905024039 | 75 | 327 | 0.0 | 1.0 | 0.00 | 0.00 | 0.00 | 56 | 1016.0 |
| 20260905023542 | 75 | 327 | 0.0 | 1.0 | 0.00 | 0.00 | 0.00 | 55 | 1016.0 |
| 20260905023039 | 75 | 327 | 0.0 | 0.0 | 0.00 | 0.00 | 0.00 | 54 | 1016.0 |
| 20260905022539 | 75 | 327 | 0.0 | 1.0 | 0.00 | 0.00 | 0.00 | 55 | 1015.9 |
| 20260905022043 | 76 | 327 | 0.0 | 1.0 | 0.00 | 0.00 | 0.00 | 55 | 1015.9 |
| 20260905021543 | 76 | 327 | 0.0 | 3.0 | 0.00 | 0.00 | 0.00 | 55 | 1015.9 |
| 20260905021040 | 76 | 323 | 2.0 | 3.0 | 0.00 | 0.00 | 0.00 | 56 | 1015.8 |
| 20260905020539 | 76 | 316 | 1.0 | 2.0 | 0.00 | 0.00 | 0.00 | 56 | 1015.7 |
| 20260905020042 | 76 | 316 | 0.0 | 2.0 | 0.00 | 0.00 | 0.00 | 57 | 1015.7 |
| 20260905015539 | 76 | 325 | 0.0 | 3.0 | 0.00 | 0.00 | 0.00 | 57 | 1015.7 |
| 20260905015039 | 76 | 326 | 0.0 | 1.0 | 0.00 | 0.00 | 0.00 | 57 | 1015.8 |
| 20260905014540 | 76 | 326 | 0.0 | 3.0 | 0.00 | 0.00 | 0.00 | 58 | 1015.8 |
| 20260905014042 | 76 | 323 | 0.0 | 4.0 | 0.00 | 0.00 | 0.00 | 59 | 1015.9 |
| 20260905013540 | 76 | 292 | 0.0 | 2.0 | 0.00 | 0.00 | 0.00 | 59 | 1016.0 |
| 20260905013039 | 76 | 303 | 0.0 | 1.0 | 0.00 | 0.00 | 0.00 | 58 | 1015.9 |
| 20260905012540 | 76 | 303 | 0.0 | 2.0 | 0.00 | 0.00 | 0.00 | 58 | 1016.0 |
| 20260905012039 | 76 | 298 | 0.0 | 1.0 | 0.00 | 0.00 | 0.00 | 57 | 1016.1 |
| 20260905011539 | 77 | 298 | 0.0 | 0.0 | 0.00 | 0.00 | 0.00 | 56 | 1016.1 |
| 20260905011039 | 77 | 298 | 0.0 | 1.0 | 0.00 | 0.00 | 0.00 | 55 | 1016.2 |
| 20260905010539 | 77 | 298 | 0.0 | 1.0 | 0.00 | 0.00 | 0.00 | 53 | 1016.2 |
| 20260905010039 | 77 | 294 | 0.0 | 2.0 | 0.00 | 0.00 | 0.00 | 51 | 1016.1 |
| 20260905005539 | 77 | 329 | 1.0 | 3.0 | 0.00 | 0.00 | 0.00 | 49 | 1016.2 |
| 20260905005042 | 77 | 325 | 0.0 | 3.0 | 0.00 | 0.00 | 0.00 | 50 | 1016.2 |
| 20260905004539 | 77 | 330 | 0.0 | 3.0 | 0.00 | 0.00 | 0.00 | 51 | 1016.2 |
| 20260905004042 | 78 | 316 | 0.0 | 1.0 | 0.00 | 0.00 | 0.00 | 51 | 1016.2 |
| 20260905003539 | 78 | 317 | 0.0 | 0.0 | 0.00 | 0.00 | 0.00 | 51 | 1016.2 |
| 20260905003039 | 78 | 317 | 0.0 | 0.0 | 0.00 | 0.00 | 0.00 | 50 | 1016.3 |
| 20260905002539 | 78 | 317 | 0.0 | 0.0 | 0.00 | 0.00 | 0.00 | 49 | 1016.3 |
| 20260905002039 | 79 | 317 | 0.0 | 0.0 | 0.00 | 0.00 | 0.00 | 48 | 1016.4 |
| 20260905001539 | 79 | 317 | 0.0 | 1.0 | 0.00 | 0.00 | 0.00 | 46 | 1016.4 |
| 20260905001039 | 80 | 317 | 0.0 | 1.0 | 0.00 | 0.00 | 0.00 | 45 | 1016.4 |
| 20260905000542 | 80 | 317 | 0.0 | 1.0 | 0.00 | 0.00 | 0.00 | 44 | 1016.5 |
| 20260905000042 | 80 | 317 | 0.0 | 0.0 | 0.00 | 0.00 | 0.00 | 45 | 1016.5 |
| 20260904235539 | 80 | 317 | 0.0 | 0.0 | 0.00 | 0.00 | 0.00 | 45 | 1016.6 |
| 20260904235039 | 80 | 317 | 0.0 | 1.0 | 0.00 | 0.00 | 0.00 | 45 | 1016.6 |
| 20260904234539 | 81 | 317 | 0.0 | 1.0 | 0.00 | 0.00 | 0.00 | 44 | 1016.5 |
| 20260904234042 | 81 | 317 | 0.0 | 1.0 | 0.00 | 0.00 | 0.00 | 45 | 1016.5 |
| 20260904233539 | 81 | 317 | 0.0 | 2.0 | 0.00 | 0.00 | 0.00 | 45 | 1016.5 |
| 20260904233039 | 81 | 315 | 2.0 | 1.0 | 0.00 | 0.00 | 0.00 | 46 | 1016.6 |
| 20260904232540 | 81 | 314 | 0.0 | 1.0 | 0.00 | 0.00 | 0.00 | 46 | 1016.6 |
| 20260904232042 | 81 | 313 | 0.0 | 2.0 | 0.00 | 0.00 | 0.00 | 45 | 1016.6 |
| 20260904231542 | 81 | 309 | 0.0 | 2.0 | 0.00 | 0.00 | 0.00 | 45 | 1016.7 |
| 20260904231040 | 81 | 306 | 0.0 | 0.0 | 0.00 | 0.00 | 0.00 | 45 | 1016.7 |
| 20260904230539 | 81 | 306 | 0.0 | 1.0 | 0.00 | 0.00 | 0.00 | 44 | 1016.8 |
| 20260904230039 | 81 | 306 | 0.0 | 2.0 | 0.00 | 0.00 | 0.00 | 45 | 1016.8 |
| 20260904225540 | 81 | 306 | 0.0 | 1.0 | 0.00 | 0.00 | 0.00 | 45 | 1016.8 |
| 20260904225039 | 81 | 306 | 0.0 | 0.0 | 0.00 | 0.00 | 0.00 | 45 | 1016.9 |
| 20260904224539 | 81 | 306 | 0.0 | 0.0 | 0.00 | 0.00 | 0.00 | 45 | 1016.9 |
| 20260904224039 | 82 | 306 | 0.0 | 0.0 | 0.00 | 0.00 | 0.00 | 45 | 1016.9 |
| 20260904223539 | 82 | 306 | 0.0 | 1.0 | 0.00 | 0.00 | 0.00 | 45 | 1016.9 |
| 20260904223039 | 82 | 306 | 0.0 | 1.0 | 0.00 | 0.00 | 0.00 | 45 | 1016.9 |
| 20260904222539 | 82 | 306 | 0.0 | 0.0 | 0.00 | 0.00 | 0.00 | 46 | 1016.9 |
| 20260904222042 | 82 | 306 | 0.0 | 0.0 | 0.00 | 0.00 | 0.00 | 46 | 1016.9 |
| 20260904221539 | 82 | 306 | 0.0 | 0.0 | 0.00 | 0.00 | 0.00 | 47 | 1016.9 |
| 20260904221039 | 82 | 306 | 0.0 | 0.0 | 0.00 | 0.00 | 0.00 | 47 | 1016.9 |
| 20260904220539 | 82 | 306 | 0.0 | 1.0 | 0.00 | 0.00 | 0.00 | 46 | 1016.9 |
| 20260904220039 | 82 | 306 | 0.0 | 0.0 | 0.00 | 0.00 | 0.00 | 47 | 1016.9 |
| 20260904215542 | 82 | 306 | 0.0 | 0.0 | 0.00 | 0.00 | 0.00 | 47 | 1016.8 |
| 20260904215039 | 82 | 306 | 0.0 | 0.0 | 0.00 | 0.00 | 0.00 | 46 | 1016.8 |
| 20260904214539 | 82 | 306 | 0.0 | 0.0 | 0.00 | 0.00 | 0.00 | 46 | 1016.8 |
| 20260904214039 | 82 | 306 | 0.0 | 0.0 | 0.00 | 0.00 | 0.00 | 47 | 1016.7 |
| 20260904213542 | 82 | 306 | 0.0 | 0.0 | 0.00 | 0.00 | 0.00 | 47 | 1016.8 |
| 20260904213039 | 82 | 306 | 0.0 | 0.0 | 0.00 | 0.00 | 0.00 | 47 | 1016.7 |
| 20260904212539 | 82 | 306 | 0.0 | 0.0 | 0.00 | 0.00 | 0.00 | 48 | 1016.7 |
| 20260904212039 | 82 | 306 | 0.0 | 0.0 | 0.00 | 0.00 | 0.00 | 48 | 1016.8 |
| 20260904211542 | 82 | 306 | 0.0 | 0.0 | 0.00 | 0.00 | 0.00 | 48 | 1016.8 |
| 20260904211039 | 82 | 306 | 0.0 | 0.0 | 0.00 | 0.00 | 0.00 | 48 | 1016.9 |
| 20260904210539 | 82 | 306 | 0.0 | 0.0 | 0.00 | 0.00 | 0.00 | 49 | 1016.9 |
| 20260904210042 | 82 | 306 | 0.0 | 0.0 | 0.00 | 0.00 | 0.00 | 49 | 1016.9 |
| 20260904205539 | 82 | 306 | 0.0 | 0.0 | 0.00 | 0.00 | 0.00 | 49 | 1016.8 |
| 20260904205042 | 82 | 306 | 0.0 | 1.0 | 0.00 | 0.00 | 0.00 | 50 | 1016.9 |
| 20260904204542 | 82 | 306 | 0.0 | 0.0 | 0.00 | 0.00 | 0.00 | 50 | 1016.9 |
| 20260904204039 | 82 | 306 | 0.0 | 0.0 | 0.00 | 0.00 | 0.00 | 51 | 1017.0 |
| 20260904203539 | 82 | 306 | 0.0 | 0.0 | 0.00 | 0.00 | 0.00 | 51 | 1016.9 |
| 20260904203039 | 82 | 306 | 0.0 | 0.0 | 0.00 | 0.00 | 0.00 | 52 | 1016.9 |
| 20260904202542 | 82 | 306 | 0.0 | 0.0 | 0.00 | 0.00 | 0.00 | 51 | 1016.9 |
| 20260904202042 | 82 | 306 | 0.0 | 0.0 | 0.00 | 0.00 | 0.00 | 50 | 1016.9 |
| 20260904201539 | 82 | 306 | 0.0 | 0.0 | 0.00 | 0.00 | 0.00 | 50 | 1016.9 |
| 20260904201042 | 82 | 306 | 0.0 | 0.0 | 0.00 | 0.00 | 0.00 | 51 | 1017.0 |
| 20260904200539 | 83 | 306 | 0.0 | 0.0 | 0.00 | 0.00 | 0.00 | 51 | 1017.1 |
| 20260904200039 | 83 | 306 | 0.0 | 0.0 | 0.00 | 0.00 | 0.00 | 51 | 1017.1 |
| 20260904195542 | 83 | 306 | 0.0 | 0.0 | 0.00 | 0.00 | 0.00 | 52 | 1017.1 |
| 20260904195039 | 83 | 306 | 0.0 | 0.0 | 0.00 | 0.00 | 0.00 | 52 | 1017.2 |
| 20260904194539 | 83 | 306 | 0.0 | 0.0 | 0.00 | 0.00 | 0.00 | 53 | 1017.2 |
| 20260904194039 | 83 | 306 | 0.0 | 0.0 | 0.00 | 0.00 | 0.00 | 52 | 1017.2 |
| 20260904193539 | 83 | 306 | 0.0 | 0.0 | 0.00 | 0.00 | 0.00 | 53 | 1017.2 |
| 20260904193042 | 83 | 306 | 0.0 | 0.0 | 0.00 | 0.00 | 0.00 | 51 | 1017.2 |
| 20260904192539 | 83 | 306 | 0.0 | 0.0 | 0.00 | 0.00 | 0.00 | 51 | 1017.1 |
| 20260904192039 | 84 | 306 | 0.0 | 0.0 | 0.00 | 0.00 | 0.00 | 51 | 1017.1 |
| 20260904191539 | 84 | 306 | 0.0 | 0.0 | 0.00 | 0.00 | 0.00 | 50 | 1017.1 |
| 20260904191039 | 84 | 306 | 0.0 | 0.0 | 0.00 | 0.00 | 0.00 | 50 | 1017.1 |
| 20260904190539 | 84 | 306 | 0.0 | 0.0 | 0.00 | 0.00 | 0.00 | 50 | 1017.0 |
| 20260904190039 | 84 | 306 | 0.0 | 0.0 | 0.00 | 0.00 | 0.00 | 50 | 1017.0 |
| 20260904185539 | 85 | 306 | 0.0 | 0.0 | 0.00 | 0.00 | 0.00 | 50 | 1017.0 |
| 20260904185039 | 85 | 306 | 0.0 | 0.0 | 0.00 | 0.00 | 0.00 | 50 | 1016.9 |
| 20260904184539 | 85 | 306 | 0.0 | 0.0 | 0.00 | 0.00 | 0.00 | 49 | 1016.9 |
| 20260904184039 | 84 | 306 | 0.0 | 0.0 | 0.00 | 0.00 | 0.00 | 49 | 1016.9 |
| 20260904183539 | 84 | 306 | 0.0 | 0.0 | 0.00 | 0.00 | 0.00 | 50 | 1016.8 |
| 20260904183039 | 84 | 306 | 0.0 | 0.0 | 0.00 | 0.00 | 0.00 | 50 | 1016.8 |
| 20260904182539 | 85 | 306 | 0.0 | 0.0 | 0.00 | 0.00 | 0.00 | 50 | 1016.7 |
| 20260904182039 | 85 | 306 | 0.0 | 0.0 | 0.00 | 0.00 | 0.00 | 50 | 1016.7 |
| 20260904181539 | 85 | 306 | 0.0 | 0.0 | 0.00 | 0.00 | 0.00 | 50 | 1016.6 |
| 20260904181039 | 85 | 306 | 0.0 | 0.0 | 0.00 | 0.00 | 0.00 | 50 | 1016.5 |
| 20260904180539 | 85 | 306 | 0.0 | 1.0 | 0.00 | 0.00 | 0.00 | 50 | 1016.4 |
| 20260904180042 | 85 | 306 | 0.0 | 0.0 | 0.00 | 0.00 | 0.00 | 49 | 1016.4 |
| 20260904175539 | 85 | 306 | 0.0 | 0.0 | 0.00 | 0.00 | 0.00 | 48 | 1016.3 |
| 20260904175039 | 85 | 306 | 0.0 | 0.0 | 0.00 | 0.00 | 0.00 | 49 | 1016.3 |
| 20260904174542 | 86 | 306 | 0.0 | 0.0 | 0.00 | 0.00 | 0.00 | 49 | 1016.3 |
| 20260904174039 | 86 | 306 | 0.0 | 0.0 | 0.00 | 0.00 | 0.00 | 49 | 1016.3 |
| 20260904173539 | 86 | 306 | 0.0 | 0.0 | 0.00 | 0.00 | 0.00 | 49 | 1016.2 |
| 20260904173039 | 86 | 306 | 0.0 | 0.0 | 0.00 | 0.00 | 0.00 | 48 | 1016.2 |
| 20260904172539 | 86 | 306 | 0.0 | 0.0 | 0.00 | 0.00 | 0.00 | 48 | 1016.3 |
| 20260904172039 | 86 | 306 | 0.0 | 1.0 | 0.00 | 0.00 | 0.00 | 48 | 1016.3 |
| 20260904171539 | 86 | 306 | 0.0 | 1.0 | 0.00 | 0.00 | 0.00 | 50 | 1016.3 |
| 20260904171039 | 87 | 306 | 0.0 | 1.0 | 0.00 | 0.00 | 0.00 | 51 | 1016.3 |
| 20260904170539 | 87 | 304 | 0.0 | 1.0 | 0.00 | 0.00 | 0.00 | 50 | 1016.3 |
| 20260904170039 | 87 | 302 | 0.0 | 0.0 | 0.00 | 0.00 | 0.00 | 50 | 1016.3 |
| 20260904165539 | 87 | 301 | 0.0 | 0.0 | 0.00 | 0.00 | 0.00 | 50 | 1016.3 |